Time,TemperatureF,DewpointF,PressureIn,WindDirection,WindDirectionDegrees,WindSpeedMPH,WindSpeedGustMPH,Humidity,HourlyPrecipIn,Conditions,Clouds,dailyrainin,SoftwareType,DateUTC
2013-03-11 00:01:00,34.3,21.8,29.88,West,266,8.0,20.0,60,0.00,BKN,,0.00,WeatherDisplay:10.37,2013-03-11 00:01:00,
2013-03-11 00:31:00,33.9,20.7,29.88,WNW,297,6.0,18.0,58,0.00,BKN,,0.00,WeatherDisplay:10.37,2013-03-11 00:31:00,
2013-03-11 01:01:00,33.3,20.9,29.89,WSW,258,6.0,18.0,60,0.00,BKN,,0.00,WeatherDisplay:10.37,2013-03-11 01:01:00,
2013-03-11 01:31:00,33.3,20.9,29.88,West,269,6.0,16.0,60,0.00,BKN,,0.00,WeatherDisplay:10.37,2013-03-11 01:31:00,
2013-03-11 02:01:00,33.2,18.8,29.88,WNW,285,7.0,16.0,55,0.00,BKN,,0.00,WeatherDisplay:10.37,2013-03-11 02:01:00,
2013-03-11 02:31:00,33.3,18.8,29.88,North,353,5.0,14.0,55,0.00,BKN,,0.00,WeatherDisplay:10.37,2013-03-11 02:31:00,
2013-03-11 03:01:00,33.2,19.2,29.88,NW,321,5.0,13.0,56,0.00,BKN,,0.00,WeatherDisplay:10.37,2013-03-11 03:01:00,
2013-03-11 03:31:00,32.9,21.3,29.88,NNW,329,5.0,17.0,62,0.00,BKN,,0.00,WeatherDisplay:10.37,2013-03-11 03:31:00,
2013-03-11 04:01:00,32.8,21.5,29.89,NNE,15,6.0,15.0,63,0.00,BKN,,0.00,WeatherDisplay:10.37,2013-03-11 04:01:00,
2013-03-11 04:31:00,32.7,20.3,29.89,WNW,289,5.0,13.0,60,0.00,BKN,,0.00,WeatherDisplay:10.37,2013-03-11 04:31:00,
2013-03-11 05:01:00,32.5,19.7,29.90,North,358,5.0,13.0,59,0.00,BKN,,0.00,WeatherDisplay:10.37,2013-03-11 05:01:00,
2013-03-11 05:31:00,32.5,19.7,29.90,WNW,303,6.0,13.0,59,0.00,BKN,,0.00,WeatherDisplay:10.37,2013-03-11 05:31:00,
2013-03-11 06:01:00,31.9,20.0,29.91,WNW,283,6.0,14.0,61,0.00,BKN,,0.00,WeatherDisplay:10.37,2013-03-11 06:01:00,
2013-03-11 06:31:00,32.4,19.7,29.91,NNW,345,3.0,15.0,59,0.00,SCT,,0.00,WeatherDisplay:10.37,2013-03-11 06:31:00,
2013-03-11 07:01:00,32.1,19.0,29.92,NNW,346,5.0,18.0,58,0.00,SCT,,0.00,WeatherDisplay:10.37,2013-03-11 07:01:00,
2013-03-11 07:31:00,31.5,21.8,29.93,NNE,17,6.0,16.0,67,0.00,BKN,,0.00,WeatherDisplay:10.37,2013-03-11 07:31:00,
2013-03-11 08:01:00,31.4,22.0,29.94,NNW,332,3.0,13.0,68,0.00,BKN,,0.00,WeatherDisplay:10.37,2013-03-11 08:01:00,
2013-03-11 08:31:00,30.2,24.5,29.94,NNE,31,5.0,16.0,79,0.00,BKN,,0.00,WeatherDisplay:10.37,2013-03-11 08:31:00,
2013-03-11 09:01:00,32.9,20.9,29.95,North,5,3.0,13.0,61,0.00,BKN,,0.00,WeatherDisplay:10.37,2013-03-11 09:01:00,
2013-03-11 09:31:00,30.9,24.8,29.96,West,275,6.0,18.0,78,0.00,BKN,,0.00,WeatherDisplay:10.37,2013-03-11 09:31:00,
2013-03-11 10:01:00,32.9,24.2,29.96,NNW,340,7.0,12.0,70,0.00,BKN,,0.00,WeatherDisplay:10.37,2013-03-11 10:01:00,
2013-03-11 10:31:00,31.4,25.3,29.96,North,351,5.0,18.0,78,0.00,BKN,,0.00,WeatherDisplay:10.37,2013-03-11 10:31:00,
2013-03-11 11:01:00,31.1,25.6,29.97,North,357,8.0,21.0,80,0.00,BKN,,0.00,WeatherDisplay:10.37,2013-03-11 11:01:00,
2013-03-11 11:31:00,29.9,26.2,29.97,North,354,6.0,17.0,86,0.00,BKN,,0.00,WeatherDisplay:10.37,2013-03-11 11:31:00,
2013-03-11 12:01:00,34.4,27.0,29.97,NNW,346,3.0,12.0,74,0.00,SCT,,0.00,WeatherDisplay:10.37,2013-03-11 12:01:00,
2013-03-11 12:31:00,32.5,27.6,29.97,West,265,5.0,16.0,82,0.00,SCT,,0.00,WeatherDisplay:10.37,2013-03-11 12:31:00,
2013-03-11 13:01:00,34.9,28.8,29.97,WSW,247,5.0,10.0,78,0.00,BKN,,0.00,WeatherDisplay:10.37,2013-03-11 13:01:00,
2013-03-11 13:31:00,35.0,22.5,29.96,NNE,30,7.0,15.0,60,0.01,SCT,,0.01,WeatherDisplay:10.37,2013-03-11 13:31:00,
2013-03-11 14:01:00,34.8,21.1,29.96,North,9,10.0,17.0,57,0.00,SCT,,0.01,WeatherDisplay:10.37,2013-03-11 14:01:00,
2013-03-11 15:01:00,34.4,24.9,29.96,NNE,19,8.0,16.0,68,0.00,SCT,,0.01,WeatherDisplay:10.37,2013-03-11 15:01:00,
2013-03-11 15:31:00,32.4,26.7,29.97,North,7,9.0,21.0,79,0.01,BKN,,0.02,WeatherDisplay:10.37,2013-03-11 15:31:00,
2013-03-11 16:01:00,33.6,23.5,29.96,NNE,20,6.0,21.0,66,0.00,BKN,,0.02,WeatherDisplay:10.37,2013-03-11 16:01:00,
2013-03-11 16:31:00,33.9,23.7,29.96,North,355,6.0,15.0,66,0.00,BKN,,0.02,WeatherDisplay:10.37,2013-03-11 16:31:00,
2013-03-11 17:01:00,32.8,22.3,29.97,NNE,29,7.0,17.0,65,0.00,BKN,,0.02,WeatherDisplay:10.37,2013-03-11 17:01:00,
2013-03-11 17:31:00,33.2,26.1,29.97,North,4,6.0,14.0,75,0.00,CLR,,0.02,WeatherDisplay:10.37,2013-03-11 17:31:00,
2013-03-11 18:01:00,31.1,27.7,29.98,North,4,8.0,20.0,87,0.00,CLR,,0.02,WeatherDisplay:10.37,2013-03-11 18:01:00,
2013-03-11 19:31:00,31.5,24.5,29.99,NNE,18,3.0,8.0,75,0.00,BKN,,0.02,WeatherDisplay:10.37,2013-03-11 19:31:00,
2013-03-11 20:01:00,32.2,21.4,30.00,NNE,13,5.0,12.0,64,0.00,BKN,,0.02,WeatherDisplay:10.37,2013-03-11 20:01:00,
2013-03-11 21:01:00,32.1,20.5,30.00,NNE,12,3.0,12.0,62,0.00,BKN,,0.02,WeatherDisplay:10.37,2013-03-11 21:01:00,
2013-03-11 21:31:00,32.2,21.0,30.01,NNE,31,5.0,12.0,63,0.00,SCT,,0.02,WeatherDisplay:10.37,2013-03-11 21:31:00,
2013-03-11 22:01:00,32.2,20.6,30.01,NNE,12,3.0,14.0,62,0.00,FEW,,0.02,WeatherDisplay:10.37,2013-03-11 22:01:00,
2013-03-11 22:31:00,32.3,20.3,30.02,NNE,13,5.0,12.0,61,0.00,SCT,,0.02,WeatherDisplay:10.37,2013-03-11 22:31:00,
2013-03-11 23:01:00,32.2,20.6,30.02,NNE,12,1.0,14.0,62,0.00,FEW,,0.02,WeatherDisplay:10.37,2013-03-11 23:01:00,
2013-03-11 23:31:00,32.0,21.9,30.03,North,3,5.0,10.0,66,0.00,BKN,,0.02,WeatherDisplay:10.37,2013-03-11 23:31:00,